DK5BM-6 Weather Reports


time (UTC)temp
C
wind
direction
speed
KPH
gust
KPH
rain 1hr
cm
rain 24hr
cm
rain mn
cm
humidity
%
barometer
mb
20190819053801 17 42 1.6 3.2 0.03 0.18 0.15 92 1001.1
20190819053601 17 33 0.0 1.6 0.03 0.18 0.15 92 1001.2
20190819053401 17 8 0.0 3.2 0.03 0.18 0.15 92 1001.3
20190819053201 17 1 0.0 3.2 0.03 0.18 0.15 92 1001.0
20190819053002 17 1 0.0 3.2 0.03 0.18 0.15 92 1000.8
20190819052800 17 354 0.0 3.2 0.03 0.18 0.15 92 1001.1
20190819052601 17 327 0.0 3.2 0.03 0.18 0.15 92 1001.2
20190819052402 17 230 0.0 3.2 0.03 0.18 0.15 92 1001.0
20190819052201 17 210 0.0 3.2 0.03 0.18 0.15 92 1001.0
20190819052001 17 91 0.0 6.4 0.03 0.18 0.15 92 1000.8
20190819051801 17 57 0.0 8.0 0.03 0.18 0.15 92 1000.8
20190819051601 17 15 1.6 9.7 0.03 0.18 0.15 92 1000.7
20190819051401 17 6 1.6 9.7 0.03 0.18 0.15 92 1000.7
20190819051201 17 354 0.0 9.7 0.03 0.18 0.15 92 1000.6
20190819051001 17 341 3.2 9.7 0.03 0.18 0.15 92 1000.8
20190819050801 17 332 4.8 9.7 0.03 0.18 0.15 92 1000.8
20190819050601 17 335 3.2 6.4 0.00 0.15 0.13 92 1000.7
20190819050401 17 336 3.2 4.8 0.00 0.15 0.13 91 1000.7
20190819050201 17 355 3.2 3.2 0.00 0.15 0.13 91 1000.4
20190819050003 17 336 0.0 6.4 0.00 0.15 0.13 91 1000.5
20190819045801 17 316 0.0 6.4 0.00 0.15 0.13 91 1000.5
20190819045601 17 282 0.0 6.4 0.00 0.15 0.13 91 1000.5
20190819045401 17 271 0.0 6.4 0.00 0.15 0.13 91 1000.6
20190819045201 17 263 0.0 6.4 0.00 0.15 0.13 91 1000.4
20190819045001 17 251 3.2 6.4 0.00 0.18 0.13 91 1000.3
20190819044801 17 255 3.2 6.4 0.00 0.18 0.13 91 1000.4
20190819044601 17 251 0.0 6.4 0.00 0.18 0.13 91 1000.4
20190819044401 17 252 3.2 6.4 0.00 0.18 0.13 91 1000.4
20190819044201 17 257 0.0 4.8 0.00 0.18 0.13 91 1000.2
20190819044000 17 262 1.6 4.8 0.00 0.18 0.13 91 1000.3
20190819043801 17 252 1.6 4.8 0.00 0.18 0.13 91 1000.3
20190819043601 17 245 1.6 4.8 0.00 0.18 0.13 91 1000.2
20190819043401 17 248 0.0 4.8 0.00 0.18 0.13 91 1000.3
20190819043202 17 244 1.6 3.2 0.00 0.18 0.13 91 1000.0
20190819043002 17 245 1.6 3.2 0.00 0.18 0.13 91 1000.1
20190819042802 17 253 3.2 3.2 0.00 0.18 0.13 91 1000.1
20190819042601 17 269 1.6 3.2 0.00 0.18 0.13 91 999.9
20190819042401 17 290 0.0 3.2 0.00 0.18 0.13 91 999.9
20190819042201 17 330 0.0 3.2 0.00 0.18 0.13 91 999.6
20190819042001 17 356 0.0 3.2 0.00 0.18 0.13 91 999.9
20190819041801 17 349 1.6 3.2 0.00 0.18 0.13 91 999.9
20190819041601 17 359 0.0 3.2 0.00 0.18 0.13 91 1000.0
20190819041401 17 352 3.2 3.2 0.00 0.18 0.13 90 999.9
20190819041201 17 346 0.0 3.2 0.00 0.18 0.13 90 999.5
20190819041001 17 279 0.0 3.2 0.00 0.18 0.13 90 1000.0
20190819040801 17 245 0.0 6.4 0.00 0.18 0.13 90 999.7
20190819040601 17 257 0.0 6.4 0.00 0.18 0.13 90 999.5
20190819040401 17 270 0.0 6.4 0.00 0.18 0.13 90 999.8
20190819040201 17 281 0.0 6.4 0.00 0.18 0.13 90 999.4
20190819040003 17 271 1.6 6.4 0.00 0.18 0.13 90 999.5
20190819035801 17 273 3.2 6.4 0.00 0.18 0.13 90 999.5
20190819035601 17 265 3.2 6.4 0.00 0.18 0.13 90 999.7
20190819035401 17 265 3.2 6.4 0.00 0.18 0.13 90 999.9
20190819035202 17 266 3.2 6.4 0.00 0.18 0.13 90 999.8
20190819035001 17 265 3.2 8.0 0.00 0.18 0.13 90 999.7
20190819034801 17 263 3.2 8.0 0.00 0.18 0.13 90 999.8
20190819034601 17 251 3.2 8.0 0.00 0.18 0.13 90 999.7
20190819034401 17 228 3.2 12.9 0.00 0.18 0.13 90 999.7
20190819034201 17 222 3.2 12.9 0.00 0.18 0.13 90 999.8
20190819034001 17 222 4.8 12.9 0.00 0.18 0.13 90 999.7
20190819033801 17 218 3.2 12.9 0.00 0.18 0.13 90 999.6
20190819033601 17 226 4.8 12.9 0.00 0.18 0.13 90 999.6
20190819033401 17 228 8.0 12.9 0.00 0.18 0.13 90 999.6
20190819033201 17 223 3.2 12.9 0.00 0.18 0.13 90 999.9
20190819033002 17 221 3.2 12.9 0.00 0.18 0.13 90 999.9
20190819032801 17 221 3.2 12.9 0.00 0.18 0.13 90 999.9
20190819032601 17 222 4.8 12.9 0.00 0.18 0.13 90 1000.0
20190819032401 17 224 4.8 12.9 0.00 0.18 0.13 90 1000.1
20190819032201 17 226 6.4 12.9 0.00 0.18 0.13 90 999.9
20190819032001 17 228 4.8 12.9 0.00 0.18 0.13 90 999.7
20190819031801 17 224 4.8 12.9 0.00 0.18 0.13 90 999.6
20190819031601 17 212 4.8 12.9 0.00 0.18 0.13 90 999.7
20190819031401 17 209 3.2 12.9 0.00 0.18 0.13 90 999.9
20190819031201 17 204 6.4 12.9 0.00 0.18 0.13 90 999.7
20190819031002 17 207 4.8 12.9 0.00 0.18 0.13 90 999.6
20190819030801 17 207 8.0 12.9 0.00 0.18 0.13 90 999.5
20190819030601 17 217 3.2 11.3 0.00 0.18 0.13 90 999.8
20190819030401 17 219 3.2 9.7 0.00 0.18 0.13 90 999.8
20190819030201 17 213 4.8 9.7 0.00 0.18 0.13 90 999.7
20190819030003 17 205 3.2 9.7 0.00 0.18 0.13 90 999.8
20190819025801 17 197 6.4 9.7 0.00 0.18 0.13 90 999.7
20190819025601 17 179 4.8 9.7 0.00 0.18 0.13 90 1000.1
20190819025401 17 178 6.4 9.7 0.00 0.18 0.13 90 999.9
20190819025201 17 173 0.0 9.7 0.00 0.18 0.13 90 999.7
20190819025001 17 170 0.0 9.7 0.00 0.18 0.13 90 999.9
20190819024801 17 171 4.8 9.7 0.00 0.18 0.13 90 999.8
20190819024601 17 171 3.2 9.7 0.00 0.18 0.13 90 999.8
20190819024401 17 169 4.8 9.7 0.00 0.18 0.13 90 999.8
20190819024201 17 174 6.4 9.7 0.00 0.18 0.13 90 999.9
20190819024002 17 193 3.2 12.9 0.00 0.18 0.13 90 999.7
20190819023801 17 197 3.2 12.9 0.00 0.18 0.13 90 999.9
20190819023601 17 204 3.2 12.9 0.00 0.18 0.13 90 999.6
20190819023401 17 202 3.2 12.9 0.00 0.18 0.13 90 999.8
20190819023201 17 196 8.0 12.9 0.00 0.18 0.13 91 999.8
20190819023002 17 195 8.0 11.3 0.00 0.18 0.13 91 999.9
20190819022802 17 206 3.2 9.7 0.00 0.18 0.13 91 999.8
20190819022601 17 197 6.4 9.7 0.00 0.18 0.13 91 999.8
20190819022401 17 198 6.4 9.7 0.00 0.18 0.13 91 999.8
20190819022202 17 204 6.4 9.7 0.00 0.18 0.13 91 999.8
20190819022002 17 211 6.4 9.7 0.00 0.18 0.13 91 999.8
20190819021801 17 210 3.2 12.9 0.00 0.18 0.13 91 999.7
20190819021601 17 219 4.8 12.9 0.00 0.18 0.13 91 999.7
20190819021401 17 222 1.6 12.9 0.00 0.18 0.13 92 999.8
20190819021201 17 227 3.2 12.9 0.00 0.18 0.13 92 999.8
20190819021001 17 227 4.8 12.9 0.00 0.18 0.13 92 999.8
20190819020801 17 198 0.0 3.2 0.00 0.18 0.13 92 999.7
20190819020601 17 205 0.0 3.2 0.00 0.18 0.13 92 999.8
20190819020400 17 220 0.0 3.2 0.00 0.18 0.13 92 999.8
20190819020201 17 224 0.0 3.2 0.00 0.18 0.13 92 999.7
20190819020003 17 232 0.0 3.2 0.00 0.18 0.13 92 999.8
20190819015801 17 248 1.6 3.2 0.00 0.18 0.13 92 999.7
20190819015601 17 259 0.0 3.2 0.00 0.18 0.13 92 999.7
20190819015401 17 238 0.0 3.2 0.00 0.18 0.13 92 999.6
20190819015202 17 227 0.0 3.2 0.00 0.18 0.13 92 999.5
20190819015001 17 221 0.0 4.8 0.00 0.18 0.13 92 999.6
20190819014801 17 225 0.0 4.8 0.00 0.18 0.13 92 999.5
20190819014602 17 223 0.0 4.8 0.00 0.18 0.13 92 999.3
20190819014401 17 223 0.0 4.8 0.00 0.18 0.13 92 999.1
20190819014202 17 224 1.6 4.8 0.00 0.18 0.13 92 999.3
20190819014001 17 233 1.6 6.4 0.00 0.18 0.13 92 999.5
20190819013801 17 232 0.0 6.4 0.00 0.18 0.13 92 999.4
20190819013601 17 223 1.6 6.4 0.00 0.18 0.13 92 999.2
20190819013401 17 218 0.0 6.4 0.00 0.18 0.13 92 999.1
20190819013201 17 222 3.2 6.4 0.00 0.18 0.13 93 999.4
20190819013003 17 216 0.0 4.8 0.00 0.18 0.13 93 999.4
20190819012801 17 200 3.2 4.8 0.00 0.18 0.13 93 999.3
20190819012601 17 222 1.6 4.8 0.00 0.18 0.13 93 999.3
20190819012401 17 227 1.6 4.8 0.00 0.18 0.13 93 999.3
20190819012201 17 213 1.6 4.8 0.00 0.18 0.13 93 999.4
20190819012001 17 204 3.2 6.4 0.00 0.18 0.13 93 999.3
20190819011802 17 215 3.2 6.4 0.00 0.18 0.13 93 999.2
20190819011601 17 199 0.0 6.4 0.00 0.18 0.13 93 999.3
20190819011402 17 190 3.2 6.4 0.00 0.18 0.13 93 999.3
20190819011201 17 177 1.6 6.4 0.00 0.18 0.13 93 999.5
20190819011001 17 176 3.2 6.4 0.00 0.18 0.13 93 999.3
20190819010802 17 175 3.2 6.4 0.00 0.18 0.13 93 999.2
20190819010601 17 174 1.6 6.4 0.03 0.18 0.13 93 999.1
20190819010401 17 178 4.8 6.4 0.03 0.18 0.13 93 999.0
20190819010201 17 182 3.2 6.4 0.03 0.18 0.13 93 999.2
20190819010002 17 179 3.2 6.4 0.03 0.18 0.13 93 999.3
20190819005802 17 186 3.2 6.4 0.03 0.18 0.13 92 999.2
20190819005601 17 185 0.0 6.4 0.03 0.18 0.13 92 999.1
20190819005401 17 185 1.6 6.4 0.03 0.18 0.13 92 999.2
20190819005201 17 188 1.6 6.4 0.03 0.18 0.13 92 999.4
20190819005001 17 181 1.6 6.4 0.03 0.18 0.13 92 999.4
20190819004801 17 169 3.2 6.4 0.03 0.18 0.13 92 999.3
20190819004601 17 175 0.0 6.4 0.03 0.18 0.13 92 999.1
20190819004401 17 177 3.2 6.4 0.03 0.18 0.13 92 999.2
20190819004201 17 177 3.2 6.4 0.03 0.18 0.13 92 999.1
20190819004001 17 181 3.2 6.4 0.03 0.18 0.13 92 999.2
20190819003801 17 187 4.8 6.4 0.03 0.18 0.13 92 999.3
20190819003601 17 175 3.2 6.4 0.03 0.18 0.13 92 999.5
20190819003401 17 172 3.2 6.4 0.03 0.18 0.13 92 999.4
20190819003202 17 167 3.2 9.7 0.03 0.18 0.13 91 999.2
20190819003002 17 151 4.8 9.7 0.03 0.18 0.13 91 999.0
20190819002802 17 136 3.2 9.7 0.03 0.18 0.13 91 999.4
20190819002601 17 135 1.6 11.3 0.03 0.18 0.13 91 999.6
20190819002401 17 128 3.2 12.9 0.03 0.18 0.13 91 999.4
20190819002202 17 126 6.4 12.9 0.03 0.18 0.13 91 999.5
20190819002001 17 132 3.2 12.9 0.03 0.18 0.13 91 999.5
20190819001801 17 133 6.4 12.9 0.03 0.18 0.13 91 999.4
20190819001601 17 131 9.7 12.9 0.03 0.18 0.13 91 999.3
20190819001401 17 134 4.8 8.0 0.03 0.18 0.13 91 999.2
20190819001201 17 126 3.2 4.8 0.03 0.18 0.13 91 999.2
20190819001002 17 105 3.2 4.8 0.03 0.18 0.13 91 999.2
20190819000801 17 70 3.2 4.8 0.03 0.18 0.13 91 999.3
20190819000601 17 68 0.0 3.2 0.00 0.15 0.10 91 999.1
20190819000402 17 96 0.0 3.2 0.00 0.15 0.10 91 998.9
20190819000201 17 134 0.0 4.8 0.00 0.15 0.10 91 999.3
20190819000003 17 155 1.6 6.4 0.00 0.15 0.10 91 998.8
20190818235801 17 187 0.0 6.4 0.00 0.15 0.10 91 998.8
20190818235601 17 200 1.6 6.4 0.00 0.15 0.10 91 999.0
20190818235402 17 204 1.6 8.0 0.00 0.15 0.10 91 999.1
20190818235201 17 209 3.2 8.0 0.00 0.15 0.10 91 998.9
20190818235001 17 208 1.6 8.0 0.00 0.15 0.10 91 999.1
20190818234801 17 188 3.2 8.0 0.00 0.15 0.10 91 999.2
20190818234602 17 183 3.2 8.0 0.00 0.15 0.10 91 999.3
20190818234401 17 174 3.2 6.4 0.00 0.15 0.10 91 999.2
20190818234202 17 175 3.2 6.4 0.00 0.15 0.10 91 999.2
20190818234001 17 175 4.8 6.4 0.00 0.15 0.10 91 999.3
20190818233801 17 195 6.4 6.4 0.00 0.15 0.10 91 999.2
20190818233602 17 199 4.8 6.4 0.00 0.15 0.10 91 998.9
20190818233402 17 203 1.6 4.8 0.00 0.15 0.10 91 998.9
20190818233202 17 195 3.2 4.8 0.00 0.15 0.10 91 998.7
20190818233003 17 194 3.2 4.8 0.00 0.15 0.10 91 998.6
20190818232801 17 181 1.6 4.8 0.00 0.15 0.10 91 998.5
20190818232602 17 181 1.6 3.2 0.00 0.15 0.10 91 998.3
20190818232402 17 181 1.6 3.2 0.00 0.15 0.10 90 998.3
20190818232201 17 181 1.6 3.2 0.00 0.15 0.10 90 998.1
20190818232001 17 181 0.0 3.2 0.00 0.15 0.10 90 998.1
20190818231801 17 181 0.0 3.2 0.00 0.15 0.10 90 997.7
20190818231602 17 181 0.0 3.2 0.00 0.15 0.10 90 997.7
20190818231402 17 181 0.0 3.2 0.00 0.15 0.10 90 997.5
20190818231201 17 181 1.6 3.2 0.00 0.15 0.10 90 997.6
20190818231001 17 182 1.6 3.2 0.00 0.15 0.10 90 997.7
20190818230801 17 194 1.6 3.2 0.03 0.15 0.10 90 997.7
20190818230602 17 195 0.0 3.2 0.05 0.15 0.10 89 997.6
20190818230402 17 170 3.2 3.2 0.05 0.15 0.10 89 997.8
20190818230201 17 31 3.2 3.2 0.05 0.15 0.10 89 997.6
20190818230003 17 19 0.0 3.2 0.10 0.15 0.10 89 997.8
20190818225801 17 27 0.0 3.2 0.10 0.15 0.10 89 997.6
20190818225602 17 17 1.6 3.2 0.10 0.15 0.10 89 997.1
20190818225402 17 359 3.2 3.2 0.10 0.15 0.10 88 997.5
20190818225201 17 330 0.0 3.2 0.13 0.15 0.10 88 997.2
20190818225001 17 310 0.0 3.2 0.13 0.15 0.10 89 997.0
20190818224801 17 295 1.6 4.8 0.13 0.15 0.10 89 997.2
20190818224601 17 278 1.6 4.8 0.13 0.15 0.10 89 996.9
20190818224401 18 267 1.6 4.8 0.13 0.15 0.10 88 997.0
20190818224202 18 270 0.0 4.8 0.13 0.15 0.10 88 997.1
20190818224001 18 288 1.6 8.0 0.13 0.15 0.10 88 997.3
20190818223801 18 292 1.6 8.0 0.13 0.15 0.10 88 997.6
20190818223601 18 293 1.6 8.0 0.13 0.15 0.10 88 997.5
20190818223402 18 299 1.6 8.0 0.13 0.15 0.10 88 997.3
20190818223201 18 295 3.2 8.0 0.13 0.15 0.10 87 997.6
20190818223003 18 285 3.2 6.4 0.13 0.15 0.10 87 997.8
20190818222801 18 292 1.6 6.4 0.13 0.15 0.10 87 997.5
20190818222601 18 301 1.6 6.4 0.13 0.15 0.10 87 997.6
20190818222402 18 298 1.6 6.4 0.13 0.15 0.10 86 997.7
20190818222201 18 309 4.8 6.4 0.13 0.15 0.10 86 997.6
20190818222001 18 16 1.6 6.4 0.13 0.15 0.10 85 997.5
20190818221802 18 17 1.6 6.4 0.13 0.15 0.10 85 997.2
20190818221602 18 44 0.0 4.8 0.13 0.15 0.10 83 997.1
20190818221402 18 4 3.2 4.8 0.13 0.15 0.10 82 997.4
20190818221201 18 258 1.6 4.8 0.13 0.15 0.10 80 997.0
20190818221001 19 241 1.6 4.8 0.10 0.13 0.05 78 997.4
20190818220802 19 277 0.0 19.3 0.10 0.13 0.05 77 997.5
20190818220601 20 287 1.6 19.3 0.05 0.10 0.03 73 997.3
20190818220401 20 306 1.6 19.3 0.05 0.10 0.03 73 997.6
20190818220201 20 310 1.6 19.3 0.05 0.10 0.03 73 997.4
20190818220004 20 315 11.3 19.3 0.03 0.05 0.00 74 997.8
20190818215801 20 313 12.9 17.7 0.03 0.05 0.05 74 998.1
20190818215601 20 312 6.4 16.1 0.03 0.05 0.05 75 998.1
20190818215402 20 304 6.4 16.1 0.03 0.05 0.05 74 998.0
20190818215201 20 310 4.8 16.1 0.00 0.03 0.03 74 998.0
20190818215001 20 316 3.2 16.1 0.00 0.03 0.03 74 997.9
20190818214801 20 320 6.4 16.1 0.00 0.03 0.03 73 998.0
20190818214602 20 328 6.4 16.1 0.00 0.03 0.03 73 997.7
20190818214402 20 337 4.8 12.9 0.00 0.03 0.03 73 997.6
20190818214201 21 335 4.8 12.9 0.00 0.03 0.03 72 997.2
20190818214001 21 335 4.8 12.9 0.00 0.03 0.03 70 997.1
20190818213802 21 334 3.2 12.9 0.00 0.03 0.03 69 996.6
20190818213602 21 322 8.0 12.9 0.00 0.03 0.03 69 996.6
20190818213401 21 309 6.4 8.0 0.00 0.03 0.03 69 996.5
20190818213201 21 303 3.2 6.4 0.00 0.03 0.03 68 996.3
20190818213003 21 314 3.2 9.7 0.00 0.03 0.03 68 996.1
20190818212801 21 323 3.2 17.7 0.00 0.03 0.03 68 996.2
20190818212602 21 327 3.2 17.7 0.00 0.03 0.03 68 996.2
20190818212401 21 322 3.2 17.7 0.00 0.03 0.03 68 996.3
20190818212201 21 324 3.2 17.7 0.00 0.03 0.03 68 996.2
20190818212002 21 312 4.8 17.7 0.00 0.03 0.03 69 996.4
20190818211801 21 322 6.4 17.7 0.00 0.03 0.03 69 996.8
20190818211601 21 328 3.2 17.7 0.00 0.03 0.03 68 996.5
20190818211401 21 332 3.2 17.7 0.00 0.03 0.03 68 996.5
20190818211201 21 342 9.7 17.7 0.00 0.03 0.03 68 996.7
20190818211002 21 344 11.3 17.7 0.00 0.03 0.03 68 996.6
20190818210802 21 332 6.4 22.5 0.00 0.03 0.03 68 996.7
20190818210602 21 334 3.2 22.5 0.00 0.03 0.03 67 996.6
20190818210401 21 339 11.3 22.5 0.00 0.03 0.03 67 996.7
20190818210202 21 324 9.7 22.5 0.00 0.03 0.03 67 996.5
20190818210004 21 326 9.7 22.5 0.00 0.03 0.03 67 996.6
20190818205802 21 328 8.0 17.7 0.00 0.03 0.03 68 996.5
20190818205601 21 322 11.3 17.7 0.00 0.03 0.03 68 996.2
20190818205401 21 305 9.7 17.7 0.00 0.03 0.03 68 996.4
20190818205202 21 322 6.4 14.5 0.00 0.03 0.03 69 996.1
20190818205002 21 325 8.0 14.5 0.00 0.03 0.03 69 996.3
20190818204801 21 328 4.8 14.5 0.00 0.03 0.03 69 996.0
20190818204601 21 327 6.4 14.5 0.00 0.03 0.03 69 995.8
20190818204402 21 333 6.4 14.5 0.00 0.03 0.03 69 995.5
20190818204202 22 330 11.3 14.5 0.00 0.03 0.03 68 995.4
20190818204002 22 325 3.2 9.7 0.00 0.03 0.03 68 995.2
20190818203802 22 330 3.2 9.7 0.00 0.03 0.03 68 995.2
20190818203601 22 346 3.2 9.7 0.00 0.03 0.03 68 995.2
20190818203402 22 343 1.6 9.7 0.00 0.03 0.03 68 995.1
20190818203202 22 353 4.8 9.7 0.00 0.03 0.03 68 995.2
20190818203005 22 354 4.8 9.7 0.00 0.03 0.03 68 995.0
20190818202802 22 346 3.2 9.7 0.00 0.03 0.03 67 995.0
20190818202602 22 332 4.8 9.7 0.00 0.03 0.03 67 994.9
20190818202401 22 333 6.4 9.7 0.00 0.03 0.03 67 994.8
20190818202202 22 319 6.4 9.7 0.00 0.03 0.03 67 995.2
20190818202002 22 302 3.2 4.8 0.00 0.03 0.03 67 995.1
20190818201801 22 318 0.0 3.2 0.00 0.03 0.03 67 995.0
20190818201602 22 325 1.6 3.2 0.00 0.03 0.03 66 994.8
20190818201401 22 326 0.0 3.2 0.00 0.03 0.03 66 994.9
20190818201202 22 345 0.0 3.2 0.00 0.03 0.03 66 995.0
20190818201001 22 1 0.0 1.6 0.00 0.03 0.03 66 995.1
20190818200801 22 1 0.0 3.2 0.00 0.03 0.03 66 994.7
20190818200602 22 1 0.0 4.8 0.00 0.03 0.03 66 994.9
20190818200401 22 355 0.0 4.8 0.00 0.03 0.03 66 994.8
20190818200201 22 351 0.0 4.8 0.00 0.03 0.03 66 995.0
20190818200003 22 355 0.0 4.8 0.00 0.03 0.03 66 995.0
20190818195801 22 10 1.6 4.8 0.00 0.03 0.03 65 995.0
20190818195602 22 27 0.0 4.8 0.00 0.03 0.03 65 995.2
20190818195401 22 35 0.0 4.8 0.00 0.03 0.03 65 995.1
20190818195201 22 1 0.0 4.8 0.00 0.03 0.03 65 994.9
20190818195002 22 336 1.6 4.8 0.00 0.03 0.03 65 995.0
20190818194802 22 332 0.0 4.8 0.00 0.03 0.03 65 995.2
20190818194602 22 328 0.0 3.2 0.00 0.03 0.03 65 995.4
20190818194402 22 328 1.6 3.2 0.00 0.03 0.03 64 995.5
20190818194202 22 353 1.6 3.2 0.00 0.03 0.03 63 995.4
20190818194001 22 29 1.6 3.2 0.00 0.03 0.03 63 995.3
20190818193801 22 45 0.0 3.2 0.00 0.03 0.03 62 995.2
20190818193602 22 45 0.0 3.2 0.00 0.03 0.03 62 995.0
20190818193401 22 45 0.0 1.6 0.00 0.03 0.03 61 995.0
20190818193201 22 45 0.0 1.6 0.00 0.03 0.03 61 994.9
20190818193003 22 45 0.0 3.2 0.00 0.03 0.03 60 994.8
20190818192801 22 45 0.0 3.2 0.00 0.03 0.03 61 994.8
20190818192601 22 45 0.0 3.2 0.00 0.03 0.03 62 994.6
20190818192402 22 45 0.0 3.2 0.00 0.03 0.03 62 994.8
20190818192202 22 45 0.0 3.2 0.00 0.03 0.03 62 994.9
20190818192001 23 46 0.0 3.2 0.00 0.03 0.03 62 994.8
20190818191801 23 45 0.0 3.2 0.00 0.03 0.03 61 994.7
20190818191602 23 28 0.0 3.2 0.00 0.03 0.03 61 994.9
20190818191401 23 19 0.0 3.2 0.00 0.03 0.03 60 994.6
20190818191202 23 7 0.0 6.4 0.00 0.03 0.03 60 994.7
20190818191002 23 350 1.6 6.4 0.00 0.03 0.03 60 994.7
20190818190801 23 340 0.0 6.4 0.00 0.03 0.03 59 994.5
20190818190601 23 336 0.0 6.4 0.00 0.03 0.03 59 994.5
20190818190402 23 330 1.6 6.4 0.00 0.03 0.03 56 994.5
20190818190202 23 337 3.2 6.4 0.00 0.03 0.03 56 994.5
20190818190003 24 338 0.0 6.4 0.00 0.03 0.03 56 994.4
20190818185802 24 338 0.0 6.4 0.00 0.03 0.03 55 994.5
20190818185601 24 341 0.0 6.4 0.00 0.03 0.03 55 994.3
20190818185401 24 340 0.0 6.4 0.00 0.03 0.03 55 994.4
20190818185202 24 329 3.2 6.4 0.00 0.03 0.03 54 994.3
20190818185002 24 318 3.2 6.4 0.00 0.03 0.03 54 994.3
20190818184801 25 320 3.2 9.7 0.00 0.03 0.03 54 994.0
20190818184601 25 323 1.6 9.7 0.00 0.03 0.03 53 994.2
20190818184401 25 329 3.2 12.9 0.00 0.03 0.03 52 994.1
20190818184202 25 333 3.2 12.9 0.00 0.03 0.03 52 994.0
20190818184002 25 333 4.8 12.9 0.00 0.03 0.03 52 993.9
20190818183801 25 330 6.4 12.9 0.00 0.03 0.03 52 993.9
20190818183601 25 326 6.4 12.9 0.00 0.03 0.03 52 993.9
20190818183402 25 319 6.4 12.9 0.00 0.03 0.03 52 994.0
20190818183202 25 313 6.4 12.9 0.00 0.03 0.03 51 993.7
20190818183003 25 311 3.2 12.9 0.00 0.03 0.03 51 993.8
20190818182802 25 320 6.4 12.9 0.00 0.03 0.03 51 993.9
20190818182601 25 317 9.7 14.5 0.00 0.03 0.03 51 993.6
20190818182402 25 314 6.4 14.5 0.00 0.03 0.03 51 993.8
20190818182202 25 322 6.4 14.5 0.00 0.05 0.03 51 993.7
20190818182001 25 323 6.4 14.5 0.00 0.05 0.03 51 993.9
20190818181802 25 312 6.4 14.5 0.00 0.05 0.03 51 993.5
20190818181602 25 287 6.4 12.9 0.00 0.05 0.03 51 993.7
20190818181402 25 271 6.4 12.9 0.00 0.05 0.03 51 993.7
20190818181202 25 249 9.7 12.9 0.00 0.05 0.03 51 993.4
20190818181001 25 232 4.8 12.9 0.00 0.05 0.03 51 993.6
20190818180801 25 237 9.7 17.7 0.00 0.05 0.03 50 993.6
20190818180602 25 258 9.7 17.7 0.00 0.05 0.03 50 993.6
20190818180402 25 274 9.7 17.7 0.00 0.05 0.03 50 993.6
20190818180201 25 291 9.7 17.7 0.00 0.05 0.03 50 993.5
20190818180003 25 300 6.4 17.7 0.00 0.05 0.03 50 993.5
20190818175802 25 297 9.7 17.7 0.00 0.10 0.03 50 993.4
20190818175602 25 297 6.4 16.1 0.00 0.10 0.03 51 993.4
20190818175401 25 301 6.4 16.1 0.00 0.10 0.03 50 993.6
20190818175201 26 297 4.8 16.1 0.00 0.10 0.03 50 993.4
20190818175002 26 305 9.7 16.1 0.00 0.10 0.03 49 993.2
20190818174802 26 307 8.0 16.1 0.00 0.10 0.03 49 993.2
20190818174601 26 315 8.0 12.9 0.00 0.10 0.03 49 993.3
20190818174402 26 310 3.2 14.5 0.00 0.10 0.03 49 993.3
20190818174201 26 300 4.8 14.5 0.00 0.13 0.03 49 993.3
20190818174002 26 281 3.2 14.5 0.00 0.13 0.03 49 993.3
20190818173802 26 272 4.8 17.7 0.00 0.13 0.03 49 993.2
20190818173601 26 264 4.8 17.7 0.00 0.13 0.03 48 993.3
20190818173402 26 269 9.7 17.7 0.00 0.13 0.03 48 993.2
20190818173202 26 275 4.8 22.5 0.00 0.13 0.03 48 993.2
20190818173003 26 290 8.0 22.5 0.00 0.15 0.03 48 993.3
20190818172802 26 300 9.7 22.5 0.00 0.15 0.03 48 993.1
20190818172602 26 305 9.7 22.5 0.00 0.15 0.03 48 993.2
20190818172402 26 305 6.4 22.5 0.00 0.15 0.03 48 993.1
20190818172202 26 309 9.7 22.5 0.00 0.15 0.03 47 993.2
20190818172001 26 300 4.8 17.7 0.00 0.15 0.03 47 993.3
20190818171802 27 294 12.9 17.7 0.00 0.15 0.03 47 993.4
20190818171602 27 288 8.0 17.7 0.00 0.15 0.03 47 993.1
20190818171402 26 288 6.4 17.7 0.00 0.15 0.03 48 993.2
20190818171202 26 283 4.8 17.7 0.00 0.15 0.03 48 993.4
20190818171001 26 292 6.4 17.7 0.00 0.18 0.03 48 993.1
20190818170803 26 292 9.7 17.7 0.00 0.18 0.03 48 993.1
20190818170602 26 289 9.7 17.7 0.00 0.18 0.03 48 993.1
20190818170402 26 289 6.4 17.7 0.00 0.18 0.03 48 993.0
20190818170201 27 304 8.0 17.7 0.00 0.18 0.03 46 993.1
20190818170003 27 290 8.0 14.5 0.00 0.20 0.03 46 993.1
20190818165801 27 287 8.0 14.5 0.00 0.20 0.03 47 993.2
20190818165602 27 259 3.2 11.3 0.00 0.20 0.03 48 993.0
20190818165402 27 256 4.8 11.3 0.00 0.20 0.03 48 993.1
20190818165202 27 232 4.8 9.7 0.00 0.20 0.03 48 992.9
20190818165002 26 228 6.4 9.7 0.00 0.20 0.03 49 992.9
20190818164802 27 231 4.8 12.9 0.00 0.20 0.03 48 992.8
20190818164602 27 242 3.2 12.9 0.00 0.20 0.03 48 992.9
20190818164402 26 261 4.8 12.9 0.00 0.20 0.03 49 992.9
20190818164202 26 268 6.4 12.9 0.00 0.20 0.03 49 993.0
20190818164001 26 274 3.2 12.9 0.00 0.20 0.03 49 993.0
20190818163801 26 275 6.4 12.9 0.00 0.20 0.03 49 992.9
20190818163602 26 287 6.4 12.9 0.00 0.20 0.03 49 992.9
20190818163402 26 282 4.8 12.9 0.00 0.20 0.03 49 992.7
20190818163202 26 280 4.8 14.5 0.00 0.23 0.03 49 993.0
20190818163003 26 289 3.2 14.5 0.00 0.23 0.03 49 992.7
20190818162802 26 296 4.8 14.5 0.00 0.23 0.03 48 993.0
20190818162601 26 289 9.7 14.5 0.00 0.23 0.03 47 993.0
20190818162402 26 282 6.4 19.3 0.00 0.23 0.03 46 992.9
20190818162202 26 294 6.4 19.3 0.00 0.23 0.03 45 992.8
20190818162001 27 298 11.3 19.3 0.00 0.23 0.03 44 992.7
20190818161802 27 296 6.4 19.3 0.00 0.23 0.03 43 992.7
20190818161602 27 302 12.9 19.3 0.00 0.23 0.03 43 992.8
20190818161402 27 313 9.7 19.3 0.00 0.23 0.03 42 992.8
20190818161202 27 311 16.1 19.3 0.00 0.23 0.03 42 992.9
20190818161002 27 311 9.7 17.7 0.00 0.23 0.03 43 992.7
20190818160801 27 301 4.8 19.3 0.00 0.23 0.03 43 992.9
20190818160602 26 304 9.7 19.3 0.00 0.23 0.03 46 992.9
20190818160402 26 299 9.7 22.5 0.00 0.23 0.03 46 992.8
20190818160202 26 292 9.7 22.5 0.00 0.23 0.03 46 992.7
20190818160003 26 291 11.3 22.5 0.00 0.23 0.03 46 992.8
20190818155802 26 301 12.9 22.5 0.00 0.23 0.03 46 992.8
20190818155602 26 301 9.7 22.5 0.00 0.23 0.03 45 992.5
20190818155402 26 303 14.5 22.5 0.00 0.23 0.03 45 992.8
20190818155202 26 299 9.7 16.1 0.00 0.23 0.03 45 992.7
20190818155002 27 294 12.9 14.5 0.00 0.23 0.03 44 992.6
20190818154802 27 279 6.4 14.5 0.00 0.23 0.03 44 992.7
20190818154602 27 269 9.7 14.5 0.00 0.23 0.03 45 992.6
20190818154402 26 260 6.4 14.5 0.00 0.23 0.03 46 993.0
20190818154201 26 270 6.4 14.5 0.00 0.23 0.03 47 992.8
20190818154001 26 233 3.2 16.1 0.00 0.23 0.03 49 992.7
20190818153802 26 218 3.2 22.5 0.00 0.23 0.03 49 992.6
20190818153602 26 209 0.0 22.5 0.00 0.23 0.03 47 992.2
20190818153401 26 211 3.2 22.5 0.00 0.23 0.03 45 992.4
20190818153202 26 200 1.6 22.5 0.00 0.23 0.03 43 992.5
20190818153003 26 217 12.9 22.5 0.00 0.23 0.03 44 992.4
20190818152802 26 225 11.3 16.1 0.00 0.23 0.03 51 992.3
20190818152602 26 254 3.2 14.5 0.00 0.23 0.03 50 992.3
20190818152402 26 252 3.2 17.7 0.00 0.23 0.03 44 991.9
20190818152202 27 285 3.2 20.9 0.00 0.23 0.03 41 991.9
20190818152002 27 305 6.4 20.9 0.00 0.23 0.03 40 992.8
20190818151801 27 316 6.4 24.1 0.00 0.23 0.03 38 992.8
20190818151602 28 320 6.4 24.1 0.00 0.23 0.03 36 992.9
20190818151402 28 327 12.9 24.1 0.00 0.23 0.03 36 993.0
20190818151202 28 316 6.4 24.1 0.00 0.23 0.03 35 992.8
20190818151002 28 312 6.4 24.1 0.00 0.23 0.03 35 993.2
20190818150802 28 314 11.3 19.3 0.00 0.23 0.03 35 992.7
20190818150602 28 315 8.0 24.1 0.00 0.23 0.03 33 992.9
20190818150402 29 306 14.5 27.4 0.00 0.23 0.03 33 992.5
20190818150202 29 309 8.0 27.4 0.00 0.23 0.03 33 992.4
20190818150003 29 313 12.9 27.4 0.00 0.23 0.03 32 992.1
20190818145802 29 312 4.8 27.4 0.00 0.23 0.03 32 992.2
20190818145602 30 316 17.7 27.4 0.00 0.23 0.03 31 992.2
20190818145402 30 315 6.4 27.4 0.00 0.23 0.03 31 992.2
20190818145202 30 314 6.4 27.4 0.00 0.23 0.03 30 992.1
20190818145002 30 317 12.9 27.4 0.00 0.23 0.03 30 991.9
20190818144802 31 311 11.3 27.4 0.00 0.23 0.03 29 991.7
20190818144602 31 313 12.9 27.4 0.00 0.23 0.03 29 991.8
20190818144402 31 311 9.7 24.1 0.00 0.23 0.03 29 991.9
20190818144202 31 306 8.0 24.1 0.00 0.23 0.03 29 991.6
20190818144001 30 312 17.7 30.6 0.00 0.23 0.03 31 991.7
20190818143802 30 323 11.3 30.6 0.00 0.23 0.03 31 991.4
20190818143602 30 307 16.1 30.6 0.00 0.23 0.03 31 991.5
20190818143402 30 315 14.5 30.6 0.00 0.23 0.03 30 991.7
20190818143201 31 317 19.3 30.6 0.00 0.23 0.03 29 991.7
20190818143003 31 314 9.7 27.4 0.00 0.23 0.03 29 991.9
20190818142802 31 296 11.3 27.4 0.00 0.23 0.03 29 991.9
20190818142602 31 307 8.0 27.4 0.00 0.23 0.03 29 991.8
20190818142402 31 310 19.3 27.4 0.00 0.23 0.03 29 991.8
20190818142202 31 304 8.0 17.7 0.00 0.23 0.03 28 991.8
20190818142002 31 288 6.4 17.7 0.00 0.23 0.03 27 991.8
20190818141802 31 301 8.0 17.7 0.00 0.23 0.03 27 991.7
20190818141601 31 296 12.9 17.7 0.00 0.23 0.03 29 992.0
20190818141402 31 292 6.4 17.7 0.00 0.23 0.03 28 991.9
20190818141201 31 293 11.3 17.7 0.00 0.23 0.03 29 991.7
20190818141002 31 295 6.4 17.7 0.00 0.23 0.03 28 991.8
20190818140802 31 293 6.4 24.1 0.00 0.23 0.03 26 991.6
20190818140602 31 301 12.9 25.7 0.00 0.23 0.03 26 991.8
20190818140401 31 303 12.9 27.4 0.00 0.23 0.03 26 991.8
20190818140202 31 299 12.9 27.4 0.00 0.23 0.03 26 991.9
20190818140004 31 300 9.7 29.0 0.00 0.23 0.03 26 992.1
20190818135802 31 305 9.7 29.0 0.00 0.23 0.03 26 992.0
20190818135602 31 297 11.3 29.0 0.00 0.23 0.03 26 991.8
20190818135401 31 302 11.3 29.0 0.00 0.23 0.03 27 991.9
20190818135202 31 307 17.7 29.0 0.00 0.23 0.03 26 992.0
20190818135002 32 310 12.9 27.4 0.00 0.23 0.03 26 992.1
20190818134801 32 314 9.7 27.4 0.00 0.23 0.03 26 991.9
20190818134601 32 316 17.7 27.4 0.00 0.23 0.03 26 992.0
20190818134402 32 316 12.9 24.1 0.00 0.23 0.03 26 992.1
20190818134203 32 325 9.7 25.7 0.00 0.23 0.03 26 992.1
20190818134002 32 322 9.7 25.7 0.00 0.23 0.03 28 992.0
20190818133802 32 310 9.7 25.7 0.00 0.23 0.03 28 992.1
20190818133601 32 309 11.3 25.7 0.00 0.23 0.03 26 992.2
20190818133402 32 295 12.9 25.7 0.00 0.23 0.03 27 992.1
20190818133202 31 262 11.3 20.9 0.00 0.23 0.03 29 992.1
20190818133004 31 270 12.9 20.9 0.00 0.23 0.03 28 992.3
20190818132802 31 280 8.0 24.1 0.00 0.23 0.03 26 992.0
20190818132601 31 281 8.0 24.1 0.00 0.23 0.03 25 992.0
20190818132402 31 279 6.4 24.1 0.00 0.23 0.03 25 991.9
20190818132202 31 295 11.3 24.1 0.00 0.23 0.03 27 992.2
20190818132002 31 299 8.0 24.1 0.00 0.23 0.03 27 992.0
20190818131801 31 295 12.9 24.1 0.00 0.23 0.03 27 992.0
20190818131602 31 306 8.0 29.0 0.00 0.23 0.03 26 992.1
20190818131401 31 303 11.3 29.0 0.00 0.23 0.03 26 992.2
20190818131203 31 306 12.9 29.0 0.00 0.23 0.03 26 992.1
20190818131002 31 303 12.9 29.0 0.00 0.23 0.03 25 992.2
20190818130802 31 305 11.3 29.0 0.00 0.23 0.03 25 992.3
20190818130602 31 294 12.9 24.1 0.00 0.23 0.03 26 992.1
20190818130402 31 304 6.4 24.1 0.00 0.23 0.03 26 992.2
20190818130202 31 297 6.4 24.1 0.00 0.23 0.03 26 992.2
20190818130003 32 286 8.0 22.5 0.00 0.23 0.03 27 992.0
20190818125801 31 276 9.7 22.5 0.00 0.23 0.03 29 992.3
20190818125602 31 263 4.8 22.5 0.00 0.23 0.03 28 992.5
20190818125402 31 259 12.9 22.5 0.00 0.23 0.03 28 992.3
20190818125202 31 249 12.9 17.7 0.00 0.23 0.03 28 992.0
20190818125002 31 249 9.7 16.1 0.00 0.23 0.03 29 992.2
20190818124802 31 265 9.7 16.1 0.00 0.23 0.03 29 992.2
20190818124602 31 270 6.4 16.1 0.00 0.23 0.03 29 992.2
20190818124402 31 262 6.4 16.1 0.00 0.23 0.03 29 992.3
20190818124201 31 264 8.0 16.1 0.00 0.23 0.03 29 992.1
20190818124002 31 252 9.7 16.1 0.00 0.23 0.03 29 992.4
20190818123802 31 246 4.8 19.3 0.00 0.23 0.03 29 992.3
20190818123601 31 264 6.4 19.3 0.00 0.23 0.03 29 992.2
20190818123402 31 272 6.4 25.7 0.00 0.23 0.03 29 992.4
20190818123203 31 270 6.4 25.7 0.00 0.23 0.03 30 992.2
20190818123004 30 284 4.8 25.7 0.00 0.23 0.03 30 992.3
20190818122802 30 289 6.4 25.7 0.00 0.23 0.03 30 992.3
20190818122602 30 292 9.7 25.7 0.00 0.23 0.03 30 992.2
20190818122402 30 306 12.9 25.7 0.00 0.23 0.03 30 992.5
20190818122202 30 313 12.9 24.1 0.00 0.23 0.03 30 992.5
20190818122002 30 308 12.9 24.1 0.00 0.23 0.03 30 992.4
20190818121802 30 301 12.9 24.1 0.00 0.23 0.03 30 992.4
20190818121602 30 299 12.9 24.1 0.00 0.23 0.03 31 992.4
20190818121402 30 300 6.4 24.1 0.00 0.23 0.03 30 992.6
20190818121202 30 303 11.3 24.1 0.00 0.23 0.03 30 992.6
20190818121001 30 307 8.0 24.1 0.00 0.23 0.03 30 992.6
20190818120802 30 296 20.9 24.1 0.00 0.23 0.03 30 992.6
20190818120602 30 290 11.3 17.7 0.00 0.23 0.03 31 992.5
20190818120402 30 275 11.3 22.5 0.00 0.23 0.03 31 992.6
20190818120202 30 269 11.3 22.5 0.00 0.23 0.03 31 992.5
20190818120003 30 272 9.7 22.5 0.00 0.23 0.03 31 992.8
20190818115802 30 287 8.0 22.5 0.00 0.23 0.03 31 992.6
20190818115602 31 301 14.5 25.7 0.00 0.23 0.03 30 992.6
20190818115402 30 297 6.4 25.7 0.00 0.23 0.03 31 992.7
20190818115202 30 287 14.5 25.7 0.00 0.23 0.03 31 992.8
20190818115002 30 281 8.0 25.7 0.00 0.23 0.03 31 992.7
20190818114802 30 270 14.5 25.7 0.00 0.23 0.03 31 992.6
20190818114602 30 264 4.8 24.1 0.00 0.23 0.03 31 992.8
20190818114402 30 277 8.0 24.1 0.00 0.23 0.03 31 992.9
20190818114202 30 272 12.9 24.1 0.00 0.23 0.03 31 992.7
20190818114002 30 253 11.3 24.1 0.00 0.23 0.03 31 992.7
20190818113802 30 252 6.4 24.1 0.00 0.23 0.03 31 992.8
20190818113602 30 251 8.0 24.1 0.00 0.23 0.03 32 992.9
20190818113402 30 246 17.7 24.1 0.00 0.23 0.03 32 993.0
20190818113202 30 247 11.3 25.7 0.00 0.23 0.03 32 993.0
20190818113004 30 257 12.9 25.7 0.00 0.23 0.03 32 993.0
20190818112802 30 276 12.9 25.7 0.00 0.23 0.03 30 992.9
20190818112602 30 273 12.9 25.7 0.00 0.23 0.03 31 992.9
20190818112402 30 283 12.9 25.7 0.00 0.23 0.03 32 993.3
20190818112202 30 290 6.4 20.9 0.00 0.23 0.03 31 993.1
20190818112002 30 276 14.5 20.9 0.00 0.23 0.03 31 993.1
20190818111802 30 265 9.7 19.3 0.00 0.23 0.03 32 993.2
20190818111602 30 271 11.3 19.3 0.00 0.23 0.03 32 993.2
20190818111402 30 264 9.7 25.7 0.00 0.23 0.03 33 993.0
20190818111202 30 274 11.3 25.7 0.00 0.23 0.03 32 993.0
20190818111002 30 281 9.7 25.7 0.00 0.23 0.03 33 993.2
20190818110802 30 286 8.0 25.7 0.00 0.23 0.03 33 993.1
20190818110602 29 276 9.7 25.7 0.00 0.23 0.03 33 993.2
20190818110402 30 265 14.5 24.1 0.00 0.23 0.03 34 993.1
20190818110202 30 247 6.4 20.9 0.00 0.23 0.03 34 993.3
20190818110005 29 232 8.0 24.1 0.00 0.23 0.03 35 992.9
20190818105802 29 225 6.4 24.1 0.00 0.23 0.03 35 993.0
20190818105603 28 237 12.9 24.1 0.00 0.23 0.03 35 993.1
20190818105403 28 255 4.8 24.1 0.00 0.23 0.03 34 992.9
20190818105202 28 262 11.3 24.1 0.00 0.23 0.03 34 993.1
20190818105002 28 269 14.5 24.1 0.00 0.23 0.03 34 992.9
20190818104802 28 262 11.3 24.1 0.00 0.23 0.03 34 993.3
20190818104602 28 250 17.7 24.1 0.00 0.23 0.03 34 993.2
20190818104402 29 231 8.0 16.1 0.00 0.23 0.03 35 993.4
20190818104202 29 232 4.8 16.1 0.00 0.23 0.03 36 993.3
20190818104002 29 252 6.4 22.5 0.00 0.23 0.03 37 993.3
20190818103802 28 265 9.7 22.5 0.00 0.23 0.03 39 993.2
20190818103602 28 284 6.4 22.5 0.00 0.23 0.03 39 993.2
20190818103402 28 285 6.4 22.5 0.00 0.23 0.03 38 993.0
20190818103202 28 287 6.4 22.5 0.00 0.23 0.03 39 993.4
20190818103004 28 289 6.4 20.9 0.00 0.23 0.03 39 993.4
20190818102802 28 279 12.9 19.3 0.00 0.23 0.03 41 993.4
20190818102602 28 259 8.0 17.7 0.00 0.23 0.03 42 993.2
20190818102403 28 256 4.8 17.7 0.00 0.23 0.03 43 993.4
20190818102202 27 247 3.2 17.7 0.00 0.23 0.03 43 993.2
20190818102002 28 227 8.0 14.5 0.00 0.23 0.03 44 993.2
20190818101802 28 242 12.9 14.5 0.00 0.23 0.03 44 993.3
20190818101602 28 258 6.4 12.9 0.00 0.23 0.03 47 993.3
20190818101403 27 260 6.4 11.3 0.00 0.23 0.03 46 993.4
20190818101202 27 268 4.8 11.3 0.00 0.23 0.03 48 993.4
20190818101002 27 278 6.4 11.3 0.00 0.23 0.03 48 993.6
20190818100802 27 260 9.7 12.9 0.00 0.23 0.03 48 993.5
20190818100602 27 249 4.8 12.9 0.00 0.23 0.03 47 993.6
20190818100401 27 238 4.8 12.9 0.00 0.23 0.03 47 993.5
20190818100202 27 226 4.8 12.9 0.00 0.23 0.03 47 993.5
20190818100004 27 212 4.8 14.5 0.00 0.23 0.03 47 993.4
20190818095802 27 219 9.7 14.5 0.00 0.23 0.03 48 993.5
20190818095602 27 216 3.2 14.5 0.00 0.23 0.03 49 993.6
20190818095402 27 217 6.4 14.5 0.00 0.23 0.03 49 993.5
20190818095202 27 223 6.4 14.5 0.00 0.23 0.03 48 993.5
20190818095002 27 236 9.7 16.1 0.00 0.23 0.03 49 993.6
20190818094802 27 252 6.4 16.1 0.00 0.23 0.03 49 993.7
20190818094603 27 243 8.0 16.1 0.00 0.23 0.03 49 993.6
20190818094402 26 242 6.4 17.7 0.00 0.23 0.03 50 993.7
20190818094202 26 234 8.0 17.7 0.00 0.23 0.03 51 993.9
20190818094002 26 235 9.7 17.7 0.00 0.23 0.03 51 993.6
20190818093802 26 220 8.0 17.7 0.00 0.23 0.03 51 993.7
20190818093602 26 209 4.8 19.3 0.00 0.23 0.03 51 993.8
20190818093402 26 200 6.4 20.9 0.00 0.23 0.03 51 993.9
20190818093202 26 195 9.7 20.9 0.00 0.23 0.03 51 993.8
20190818093005 26 189 6.4 20.9 0.00 0.23 0.03 51 993.8
20190818092802 26 188 6.4 20.9 0.00 0.23 0.03 51 993.8
20190818092603 26 207 9.7 20.9 0.00 0.23 0.03 51 993.9
20190818092402 26 215 6.4 17.7 0.00 0.23 0.03 52 994.2
20190818092202 26 232 4.8 17.7 0.00 0.23 0.03 51 994.0
20190818092002 26 245 11.3 17.7 0.00 0.23 0.03 51 994.1
20190818091806 26 259 6.4 17.7 0.00 0.23 0.03 51 993.9
20190818091602 26 257 8.0 17.7 0.00 0.23 0.03 52 993.9
20190818091402 26 259 3.2 17.7 0.00 0.23 0.03 52 994.1
20190818091202 26 237 6.4 17.7 0.00 0.23 0.03 52 993.8
20190818091003 26 230 6.4 17.7 0.00 0.23 0.03 53 993.8
20190818090802 25 227 8.0 17.7 0.00 0.28 0.03 53 994.1
20190818090602 25 209 6.4 22.5 0.00 0.28 0.03 53 994.0
20190818090402 25 206 12.9 22.5 0.00 0.28 0.03 53 994.1
20190818090203 25 210 6.4 22.5 0.00 0.28 0.03 54 994.1
20190818090004 25 207 6.4 22.5 0.00 0.28 0.03 53 994.2
20190818085802 25 196 8.0 24.1 0.00 0.28 0.03 53 994.2
20190818085602 25 212 12.9 24.1 0.00 0.28 0.03 53 994.3
20190818085402 25 221 3.2 24.1 0.00 0.28 0.03 53 994.3
20190818085202 25 214 6.4 24.1 0.00 0.28 0.03 53 994.4
20190818085003 25 207 12.9 24.1 0.00 0.28 0.03 53 994.3
20190818084802 25 220 12.9 19.3 0.00 0.28 0.03 54 994.6
20190818084603 25 221 9.7 17.7 0.00 0.28 0.03 54 994.5
20190818084402 25 223 9.7 17.7 0.00 0.28 0.03 54 994.6
20190818084202 25 230 9.7 17.7 0.00 0.28 0.03 54 994.6
20190818084002 25 240 6.4 17.7 0.00 0.28 0.03 55 994.7
20190818083802 25 221 4.8 17.7 0.00 0.28 0.03 55 994.6
20190818083602 25 204 6.4 17.7 0.00 0.28 0.03 56 994.6
20190818083402 25 207 6.4 17.7 0.00 0.28 0.03 55 994.6
20190818083202 25 202 6.4 14.5 0.00 0.28 0.03 57 994.7
20190818083004 24 199 6.4 17.7 0.00 0.28 0.03 57 994.9
20190818082802 24 208 11.3 19.3 0.00 0.28 0.03 57 994.8
20190818082603 24 226 9.7 19.3 0.00 0.28 0.03 57 994.7
20190818082402 24 214 6.4 19.3 0.00 0.28 0.03 57 994.6
20190818082202 24 202 6.4 19.3 0.00 0.28 0.03 56 994.9
20190818082002 24 201 12.9 19.3 0.00 0.28 0.03 57 994.8
20190818081802 24 207 4.8 16.1 0.00 0.28 0.03 57 994.7
20190818081602 24 203 4.8 16.1 0.00 0.28 0.03 57 994.9
20190818081402 24 211 8.0 16.1 0.00 0.28 0.03 57 994.8
20190818081202 24 220 9.7 16.1 0.00 0.28 0.03 57 995.0
20190818081003 24 225 6.4 16.1 0.00 0.28 0.03 57 994.8
20190818080802 24 231 3.2 11.3 0.00 0.28 0.03 57 995.0
20190818080602 24 225 4.8 11.3 0.00 0.28 0.03 59 994.9
20190818080403 24 226 4.8 11.3 0.00 0.28 0.03 59 995.0
20190818080202 24 245 4.8 12.9 0.00 0.28 0.03 59 995.0
20190818080005 23 249 6.4 16.1 0.00 0.28 0.03 59 995.4
20190818075802 23 250 6.4 17.7 0.00 0.28 0.03 59 995.3
20190818075603 23 248 6.4 17.7 0.00 0.28 0.03 60 995.1
20190818075402 23 249 4.8 17.7 0.00 0.28 0.03 60 995.3
20190818075202 23 242 9.7 17.7 0.00 0.28 0.03 60 995.0
20190818075002 23 225 4.8 17.7 0.00 0.28 0.03 60 995.1
20190818074802 23 217 6.4 16.1 0.00 0.28 0.03 61 995.2
20190818074602 23 227 6.4 17.7 0.00 0.28 0.03 61 995.1
20190818074403 23 222 6.4 17.7 0.00 0.28 0.03 60 995.2
20190818074203 23 206 12.9 17.7 0.00 0.28 0.03 60 995.1
20190818074002 23 211 6.4 17.7 0.00 0.28 0.03 60 995.2
20190818073802 23 221 6.4 17.7 0.00 0.28 0.03 60 995.2
20190818073603 23 217 8.0 17.7 0.00 0.28 0.03 60 995.2
20190818073402 23 227 11.3 17.7 0.00 0.28 0.03 61 995.3
20190818073202 23 235 6.4 14.5 0.00 0.28 0.03 61 995.3
20190818073004 23 248 3.2 14.5 0.00 0.28 0.03 61 995.6
20190818072802 22 240 4.8 14.5 0.00 0.28 0.03 60 995.3
20190818072602 22 237 8.0 14.5 0.00 0.28 0.03 60 995.4
20190818072403 23 234 9.7 12.9 0.00 0.28 0.03 60 995.5
20190818072202 22 229 6.4 11.3 0.00 0.28 0.03 60 995.6
20190818072002 22 208 4.8 12.9 0.00 0.28 0.03 60 995.4
20190818071802 22 207 6.4 12.9 0.00 0.28 0.03 60 995.6
20190818071602 22 206 4.8 12.9 0.00 0.28 0.03 60 995.5
20190818071403 22 197 4.8 12.9 0.00 0.28 0.03 59 995.4
20190818071202 22 204 9.7 12.9 0.00 0.28 0.03 59 995.6
20190818071002 22 215 6.4 12.9 0.00 0.28 0.03 59 995.5
20190818070802 22 221 6.4 12.9 0.00 0.28 0.03 59 995.6
20190818070603 22 228 3.2 11.3 0.00 0.28 0.03 59 995.6
20190818070402 22 231 6.4 11.3 0.00 0.28 0.03 59 995.7
20190818070202 22 236 6.4 11.3 0.00 0.28 0.03 60 995.8
20190818070004 22 235 3.2 14.5 0.00 0.28 0.03 60 995.7
20190818065803 22 230 3.2 14.5 0.00 0.28 0.03 60 995.8
20190818065602 22 237 3.2 14.5 0.00 0.28 0.03 61 995.9
20190818065402 22 247 4.8 14.5 0.00 0.28 0.03 61 995.6
20190818065203 21 254 3.2 14.5 0.00 0.28 0.03 62 995.9
20190818065002 21 250 6.4 14.5 0.00 0.28 0.03 62 995.8
20190818064802 21 268 6.4 12.9 0.00 0.28 0.03 62 995.8
20190818064602 21 263 3.2 12.9 0.00 0.28 0.03 63 995.9
20190818064402 21 269 3.2 12.9 0.00 0.28 0.03 63 995.7
20190818064203 21 273 3.2 12.9 0.00 0.28 0.03 63 995.7
20190818064003 21 272 8.0 12.9 0.00 0.28 0.03 64 995.8
20190818063802 21 261 4.8 12.9 0.00 0.28 0.03 63 995.9
20190818063602 21 264 4.8 9.7 0.00 0.28 0.03 64 995.9
20190818063403 21 256 3.2 9.7 0.00 0.28 0.03 64 995.8
20190818063202 21 255 4.8 9.7 0.00 0.28 0.03 64 995.8
20190818063005 21 260 4.8 6.4 0.00 0.28 0.03 65 995.9
20190818062802 21 261 3.2 6.4 0.00 0.28 0.03 65 996.1
20190818062602 21 290 3.2 6.4 0.00 0.28 0.03 66 996.1
20190818062403 21 304 1.6 6.4 0.00 0.28 0.03 67 995.9
20190818062202 22 311 1.6 4.8 0.00 0.28 0.03 67 996.1
20190818062003 21 345 0.0 4.8 0.00 0.28 0.03 68 995.9
20190818061802 21 346 1.6 4.8 0.00 0.28 0.03 69 995.8
20190818061602 21 336 1.6 3.2 0.00 0.28 0.03 70 996.0
20190818061403 21 353 0.0 3.2 0.00 0.28 0.03 71 995.9
20190818061202 21 13 0.0 3.2 0.00 0.28 0.03 71 996.1
20190818061002 21 68 0.0 3.2 0.00 0.28 0.03 73 996.0
20190818060802 21 100 1.6 3.2 0.00 0.28 0.03 76 996.2
20190818060603 20 129 0.0 3.2 0.00 0.28 0.03 80 996.1
20190818060402 20 132 0.0 3.2 0.00 0.28 0.03 80 996.2
20190818060202 20 98 0.0 3.2 0.00 0.28 0.03 80 996.3
20190818060004 20 82 0.0 3.2 0.00 0.28 0.03 80 996.1
20190818055802 20 67 1.6 3.2 0.00 0.28 0.03 81 996.1
20190818055603 20 36 0.0 3.2 0.00 0.28 0.03 82 996.1
20190818055402 19 36 0.0 3.2 0.00 0.28 0.03 83 996.1
20190818055202 19 42 1.6 3.2 0.00 0.28 0.03 84 996.1
20190818055003 18 44 0.0 4.8 0.03 0.28 0.03 85 996.0
20190818054802 18 39 1.6 4.8 0.03 0.28 0.03 85 996.1
20190818054602 18 34 0.0 4.8 0.03 0.28 0.03 85 996.1
20190818054402 17 26 1.6 4.8 0.03 0.28 0.03 85 996.0
20190818054202 17 13 1.6 4.8 0.03 0.28 0.03 84 996.1
20190818054003 16 11 3.2 4.8 0.03 0.28 0.03 85 995.9